Regional Weather Roundup
Issued by NWS

Home | Current Version | Previous Version | Graphics & Text | Print | Product List | Glossary On
Versions: 1 2 3 4 5 6 7 8 9 10 11 12 13 14 15 16 17 18 19 20 21 22 23 24 25 26 27 28 29 30 31 32 33 34 35 36 37 38 39 40 41 42 43 44 45 46 47 48 49 50
000
ASUS45 KTFX 211919
RWRMT
MONTANA HOURLY WEATHER ROUNDUP
NATIONAL WEATHER SERVICE GREAT FALLS MT
119 PM MDT SUN SEP 21 2014

NOTE: "FAIR" INDICATES FEW OR NO CLOUDS BELOW 12000 FEET WITH NO
SIGNIFICANT WEATHER AND/OR OBSTRUCTIONS TO VISIBILITY.

* THESE STATIONS ARE NOT UNDER NWS QUALITY CONTROL. THEY DO NOT
   REPORT WEATHER SUCH AS PRECIPITATION OR FOG.

MTZ001>007-043-212000-
WEST OF THE DIVIDE
CITY           SKY/WX    TMP DP  RH WIND       PRES   REMARKS
KALISPELL      SUNNY     73  45  37 NE9       30.09F
MISSOULA       SUNNY     72  43  35 VRB3      30.10F
BUTTE          PTCLDY    70  39  32 S16       30.23F
MULLAN PASS    SUNNY     64  37  37 N/A       30.21F
* ESSEX        N/A       74  43  33 SE1G6      N/A
* LINCOLN      N/A       75  38  26 NE7G12     N/A
* LOOKOUT PASS N/A       68  40  36 S9G16      N/A
* POLSON       N/A       73  50  44 S3         N/A
* RONAN APT    SUNNY     72  46  40 N/A        N/A
* SEELEY LAKE  N/A       72  41  33 NW3        N/A
* THOMP F APT  SUNNY     73  39  29 S6G11      N/A
$$

MTZ008-052>055-212000-
SOUTHWEST MONTANA
CITY           SKY/WX    TMP DP  RH WIND       PRES   REMARKS
BOZEMAN        SUNNY     70  43  38 VRB3      30.22F
DILLON         PTCLDY    66  39  37 VRB3      30.22F
W YELLOWSTONE  PTCLDY    66  41  40 SE3       30.30F
* THREE FORKS  SUNNY     68  68 100 N/A        N/A
* BOULDER HILL N/A       67  39  36 S9G16      N/A
* MONIDA PASS  N/A       68  39  35 E4G9       N/A
* RAYNOLDS PAS N/A       67   9  10 VRB4       N/A
* WHITEHALL    N/A       69  45  42 SE4        N/A
* WISE RIVER   N/A       63  36  37 E3         N/A
$$

MTZ009>010-012-014-046-048-049-054-212000-
EAST SLOPES AND CENTRAL MONTANA
CITY           SKY/WX    TMP DP  RH WIND       PRES   REMARKS
CUT BANK       SUNNY     72  43  35 SE15      30.17F
GREAT FALLS    SUNNY     70  45  41 E6        30.18F
HELENA         SUNNY     68  45  44 CALM      30.18F
MALMSTROM AFB  SUNNY     68  45  44 NW5       30.19F
* CONRAD       SUNNY     72  45  38 E7         N/A
* EAST GLACIER N/A       66  46  49 S11        N/A
* MONARCH      N/A       67  41  39 NE7        N/A
* PENDROY      N/A       69  47  46 SE12G19    N/A
* ROGERS PASS  N/A       70  41  35 NW1G6      N/A
* SAINT MARY   N/A       71  43  37 W4         N/A
* SWEET GRASS  N/A       69  41  36 S24        N/A
* WHITE SULPH  N/A       70  44  39 SW3G10     N/A
$$

MTZ011-013-016-021-035-040-045-047-050-051-212000-
NORTH CENTRAL MONTANA
CITY           SKY/WX    TMP DP  RH WIND       PRES   REMARKS
HAVRE          SUNNY     73  46  38 E10       30.17F
LEWISTOWN      SUNNY     75  45  34 E12       30.22F
* CHINOOK      SUNNY     72  46  40 E14       30.17F
* FORT BENTON  SUNNY     73  46  38 E12G17    30.17F
* CHESTER      N/A       69  40  35 SE13G23    N/A
* DENTON       N/A       73  43  34 E9         N/A
* GEYSER       N/A       71  43  37 E6G12      N/A
* JUDITH GAP   N/A       66  44  45 SE16G22    N/A
* LOMA         N/A       72  43  35 E14G19     N/A
$$

MTZ017>020-022>027-061-062-212000-
NORTHEAST MONTANA
CITY           SKY/WX    TMP DP  RH WIND       PRES   REMARKS
GLASGOW        SUNNY     70  36  29 S6        30.24F
JORDAN         SUNNY     73  37  27 S9        30.24F
SIDNEY         SUNNY     70  39  32 S8        30.27F
WOLF POINT     SUNNY     72  39  30 CALM      30.25F
* BEAVER HILL  N/A       68  33  27 E3         N/A
* CIRCLE       N/A       73  41  32 N/A        N/A
* LINDSAY DVD  N/A       70  36  29 SW4        N/A
$$

MTZ028>042-056>058-212000-
SOUTHCENTRAL AND SOUTHEAST MONTANA
CITY           SKY/WX    TMP DP  RH WIND       PRES   REMARKS
BAKER          SUNNY     72  34  25 VRB3      30.30F
BILLINGS       SUNNY     70  45  41 E7        30.25F
LIVINGSTON     SUNNY     70  43  38 E13       30.24F
MILES CITY     SUNNY     73  37  27 S9        30.26F
* LAUREL APT   SUNNY     68  43  40 N/A        N/A
* ROUNDUP APT  SUNNY     70  41  35 N/A        N/A
* ALZADA       N/A       71  36  28 NE1G9      N/A
* HYSHAM       N/A       73  42  33 E8         N/A
* LAME DEER    N/A       67  41  39 SE6G14     N/A
* REED POINT   N/A       67  42  40 E6G11      N/A
* ROSCOE HILL  N/A       65  39  39 E1G8       N/A
$$

REGIONAL REPORTS...DAKOTAS
CITY           SKY/WX    TMP DP  RH WIND       PRES   REMARKS
WILLISTON      SUNNY     72  39  30 SW8       30.27F
DICKINSON      SUNNY     70  39  32 W8        30.28F
BEACH          N/A       68  32  26 NW6       30.29F
CROSBY         SUNNY     72  36  27 W10       30.25F
TIOGA          SUNNY     68  36  31 W5        30.29F
WATFORD CITY   SUNNY     70  36  29 CALM      30.24F
BISMARCK       SUNNY     72  46  40 W6        30.28F
GRAND FORKS    PTSUNNY   63  50  63 NW8       30.22F
FARGO          CLOUDY    63  52  68 N7        30.23S
BUFFALO SD     SUNNY     72  34  25 CALM      30.25F
RAPID CITY     SUNNY     72  37  28 VRB5      30.33F
$$

REGIONAL REPORTS...WYOMING/IDAHO/WASHINGTON
CITY           SKY/WX    TMP DP  RH WIND       PRES   REMARKS
GILLETTE       SUNNY     72  37  28 S9G17     30.31F
SHERIDAN       SUNNY     75  39  27 SE17      30.25F
CODY           PTCLDY   N/A N/A N/A N/A        N/A
YELLOWSTONE LA PTCLDY    64  39  40 E5        30.40F
SALMON         PTCLDY    72  39  30 CALM      30.10F
MULLAN PASS    SUNNY     64  37  37 N/A       30.21S
SAND POINT     SUNNY     75  45  34 NE12      30.02F
SPOKANE        SUNNY     75  45  34 E6        30.00F
$$

REGIONAL REPORTS...ALBERTA
CITY           SKY/WX    TMP DP  RH WIND       PRES   REMARKS
CALGARY        SUNNY     73  45  37 S16       30.07F
LETHBRIDGE     N/A       75  43  32 S21G26    30.10F
MEDICINE HAT   N/A       77  43  30 S15       30.13F
EDMONTON       SUNNY     79  45  30 S15G23    29.98F
WATERTON GATE  N/A       73  45  37 NE6        N/A
CARDSTON       N/A       73  46  38 S10G20     N/A
MILK RIVER     N/A       72  43  35 S17        N/A
$$

REGIONAL REPORTS...SASKATCHEWAN
CITY           SKY/WX    TMP DP  RH WIND       PRES   REMARKS
SWIFT CURRENT  SUNNY     72  36  27 SW13G18   30.18F
MOOSE JAW      N/A       70  41  35 W13       30.20R
REGINA         N/A       72  41  33 SW10      30.20F
VAL MARIE      N/A       70  37  30 S13        N/A
ASSINIBOIA     N/A       72  34  25 SW9        N/A
CORONACH       N/A       72  34  25 SW6        N/A

$$



USA.gov is the U.S. government's official web portal to all federal, state and local government web resources and services.